Weather History for Joplin, MO

Change the Weather History Date:

Tuesday, April 9, 2013

  Actual Average Record
Temperature  
Mean Temperature 71 °F 56 °F  
Max Temperature 77 °F 68 °F 88 °F (2011)
Min Temperature 65 °F 45 °F 29 °F (1997)
Degree Days  
Heating Degree Days 0 10  
Month to date heating degree days 95 97  
Since 1 July heating degree days 3868 3859  
Cooling Degree Days 6 1  
Month to date cooling degree days 11 9  
Year to date cooling degree days 12 19  
Growing Degree Days 20 (Base 50)    
Moisture  
Dew Point 59 °F    
Average Humidity 65    
Maximum Humidity 73    
Minimum Humidity 57    
Precipitation  
Precipitation 0.00 in 0.13 in 1.56 in (2008)
Month to date precipitation 0.14 1.11  
Year to date precipitation 7.99 8.88  
Snow  
Snow 0.00 in - - ()
Month to date snowfall T  
Snow Depth 0.00 in    
Sea Level Pressure  
Sea Level Pressure 29.70 in    
Wind  
Wind Speed 12 mph (SSE)    
Max Wind Speed 25 mph    
Max Gust Speed 30 mph    
Visibility 10 miles    
Events      
T = Trace of Precipitation, MM = Missing Value Source: NWS Daily Summary

Daily Weather History Graph

Daily Weather History Graph

Search for Another Location

Airport:

Trip Planner

Search our weather history database for the weather conditions in past years. The results will help you decide how hot, cold, wet, or windy it might be!

Date:

Astronomy

Apr. 09, 2013 Rise Set
Actual Time 6:51 AM CDT 7:47 PM CDT
Civil Twilight 6:25 AM CDT 8:14 PM CDT
Nautical Twilight 5:53 AM CDT 8:46 PM CDT
Astronomical Twilight 5:21 AM CDT 9:18 PM CDT
Moon 6:14 AM CDT (4/9) 7:24 PM CDT (4/9)
Length of Visible Light 13h 49m
Length of Day
12h 56m
Waning Crescent, 1% of the Moon is Illuminated
Apr 9
Waning Crescent
Apr 10
New
Apr 18
First Quarter
Apr 25
Full
May 2
Last Quarter

Hourly Weather History & Observations

Time (CDT) Temp. Dew Point Humidity Pressure Visibility Wind Dir Wind Speed Gust Speed Precip Events Conditions
12:53 AM 66.0 °F 57.0 °F 73% 29.70 in 10.0 mi ESE 10.4 mph - N/A   Overcast
1:53 AM 66.0 °F 57.0 °F 73% 29.69 in 10.0 mi SE 9.2 mph - N/A   Overcast
2:53 AM 66.9 °F 55.9 °F 68% 29.67 in 10.0 mi SE 11.5 mph - N/A   Overcast
3:53 AM 66.0 °F 57.0 °F 73% 29.67 in 10.0 mi SE 10.4 mph - N/A   Overcast
4:53 AM 66.0 °F 57.0 °F 73% 29.66 in 10.0 mi SSE 10.4 mph 17.3 mph N/A   Overcast
5:53 AM 66.0 °F 55.9 °F 70% 29.68 in 10.0 mi South 15.0 mph - N/A   Overcast
6:53 AM 64.9 °F 55.0 °F 70% 29.69 in 10.0 mi South 15.0 mph 24.2 mph N/A   Partly Cloudy
7:53 AM 66.0 °F 55.9 °F 70% 29.71 in 10.0 mi South 15.0 mph - N/A   Mostly Cloudy
8:53 AM 68.0 °F 57.0 °F 68% 29.73 in 10.0 mi South 17.3 mph 27.6 mph N/A   Overcast
9:51 AM 71.6 °F 59.0 °F 64% 29.75 in 10.0 mi South 18.4 mph 27.6 mph N/A   Overcast
9:53 AM 71.1 °F 59.0 °F 66% 29.73 in 10.0 mi South 19.6 mph 27.6 mph N/A   Mostly Cloudy
10:53 AM 72.0 °F 60.1 °F 66% 29.75 in 10.0 mi South 17.3 mph - N/A   Overcast
11:53 AM 73.0 °F 61.0 °F 66% 29.74 in 10.0 mi South 15.0 mph 24.2 mph N/A   Overcast
12:53 PM 73.9 °F 61.0 °F 64% 29.74 in 10.0 mi South 15.0 mph 26.5 mph N/A   Overcast
1:53 PM 75.0 °F 61.0 °F 62% 29.73 in 10.0 mi South 11.5 mph 19.6 mph N/A   Overcast
2:53 PM 75.0 °F 62.1 °F 64% 29.73 in 10.0 mi South 8.1 mph - N/A   Overcast
3:53 PM 75.0 °F 61.0 °F 62% 29.70 in 10.0 mi South 13.8 mph - N/A   Overcast
4:53 PM 75.9 °F 62.1 °F 62% 29.69 in 10.0 mi SE 10.4 mph - N/A   Overcast
5:53 PM 75.9 °F 60.1 °F 58% 29.69 in 10.0 mi SSE 12.7 mph - N/A   Overcast
6:53 PM 75.9 °F 60.1 °F 58% 29.69 in 10.0 mi SE 10.4 mph - N/A   Overcast
7:53 PM 73.0 °F 60.1 °F 64% 29.70 in 10.0 mi ESE 5.8 mph - N/A   Overcast
8:53 PM 73.9 °F 59.0 °F 59% 29.71 in 10.0 mi SE 6.9 mph - N/A   Overcast
9:53 PM 73.9 °F 57.0 °F 55% 29.69 in 10.0 mi SSE 12.7 mph - N/A   Clear
10:53 PM 72.0 °F 57.0 °F 59% 29.70 in 10.0 mi South 9.2 mph - N/A   Scattered Clouds
11:53 PM 72.0 °F 57.0 °F 59% 29.68 in 10.0 mi SSE 8.1 mph - N/A   Mostly Cloudy